Preview of NWS' New Version of Forecast
This preview is not operational and should not be used for support decisions.
Latest weather observations around

Panama City - Northwest Florida Beaches International Airport (KECP)

Using English Units (Switch to International System of Units)
Date/ Time (CDT) Wind (mph) Vis. (mi) Weather Sky Cond. Temp (°F) Rel. Humidity Wind Chill (°F) Heat Index (°F) Pressure Precip. (in)
Air Dwpt 6 hour Altimeter (inHg) Sea level (inHg) 1 hr 3 hr 6 hr
Max Min
Sep 23 03:53 N 5 10 Clear CLR 69 66     90%     30.06 30.09      
Sep 23 02:53 ENE 5 10 Clear CLR 68 65     90%     30.05 30.08      
Sep 23 01:53 NW 3 10 Clear CLR 67 64     90%     30.06 30.09      
Sep 23 00:53 NW 3 10 Clear CLR 69 66     90%     30.07 30.1      
Sep 22 23:53 Calm 10 Clear CLR 68 65     90%     30.08 30.11      
Sep 22 22:53 NW 3 10 Clear CLR 68 65     90%     30.09 30.12      
Sep 22 21:53 Calm 10 Clear CLR 71 67     87%   72 30.1 30.13      
Sep 22 20:53 NW 5 10 Clear CLR 73 68     84%   74 30.09 30.12      
Sep 22 19:53 Calm 10 Clear   76 68     76%   77 30.08 30.12      
Sep 22 18:53 S 6 10 Clear CLR 79 69     72%   80 30.08 30.11      
Sep 22 17:53 S 11 10 Clear CLR 83 67     59%   86 30.07 30.1      
Sep 22 16:53 S 10 10 Partly Cloudy SCT055 86 66     51%   88 30.06 30.09      
Sep 22 15:53 S 10 10 Mostly Cloudy BKN055 90 63     41%   91 30.05 30.08      
Sep 22 14:53   10 Partly Cloudy SCT055 90 61     38%   90 30.06 30.09      
Sep 22 13:53 7 10 Partly Cloudy SCT055 89 61     39%   89 30.09 30.11      
Sep 22 12:53 E 5 10 Partly Cloudy SCT050 85 60     43%   85 30.11 30.14      
Sep 22 11:53 E 8 10 Partly Cloudy SCT050 87        %     30.14 30.17      
Sep 22 10:53 ENE 8 10 Partly Cloudy SCT030 84        %     30.16 30.19      
Sep 22 09:53 NE 10 10 Clear CLR 83 63     51%   84 30.16 30.19      
Sep 22 08:53 E 6 10 Clear CLR 79 65     62%   80 30.16 30.19      
Sep 22 07:53 ENE 6 10 Clear CLR 73 64     73%   73 30.15 30.18      
Sep 22 06:53 NE 6 10 Clear CLR 67 62     84%     30.14 30.17      
Sep 22 05:53 NE 3 10 Clear CLR 67 62     84%     30.14 30.16      
Sep 22 04:53 NE 5 10 Clear CLR 68 62     81%     30.13 30.16      
Sep 22 03:53 NE 6 10 Clear CLR 70 63     78%     30.12 30.15      
Sep 22 02:53 ENE 5 10 Mostly Cloudy BKN060 73 63     71%   73 30.13 30.16      
Sep 22 01:53 ENE 6 10 Cloudy OVC060 75 63     66%   75 30.13 30.16      
Sep 22 00:53 E 6 10 Partly Cloudy SCT060 75 63     66%   75 30.14 30.17      
Sep 21 23:53 ENE 7 10 Mostly Cloudy BKN065 77 61     58%   77 30.15 30.17      
Sep 21 22:53 ENE 3 10 Cloudy OVC065 75 61     62%   75 30.15 30.18      
Sep 21 21:53 NE 3 10 Mostly Cloudy BKN065 75 62     64%   75 30.15 30.18      
Sep 21 20:53 ENE 3 10 Mostly Cloudy BKN070 77 60     56%   77 30.14 30.17      
Sep 21 19:53 NE 5 10 Mostly Cloudy BKN070 80 59     49%   81 30.13 30.16      
Sep 21 18:53 ENE 3 10 Partly Cloudy SCT070 83 59     44%   83 30.11 30.14      
Sep 21 17:53 E 7 10 Partly Cloudy SCT075 88 57     35%   87 30.11 30.14      
Sep 21 16:53 E 8 10 Partly Cloudy SCT070 88 56     34%   86 30.11 30.14      
Sep 21 15:53 ENE 9 10 Partly Cloudy SCT070 90 55     31%   88 30.11 30.14      
Sep 21 14:53 E 7 10 Clear CLR 88        %     30.13 30.15      
Sep 21 13:53 NE 10 10 Partly Cloudy SCT060 89        %     30.14 30.17      
Sep 21 12:53 ENE 10 10 Mostly Cloudy SCT050 BKN065 89 60     38%   89 30.18 30.21      
Sep 21 11:53 ENE 10 10 Mostly Clear FEW045 88 62     42%   88 30.19 30.22      
Sep 21 10:53 ENE 10 10 Partly Cloudy SCT037 85 65     51%   87 30.21 30.24      
Sep 21 09:53 E 10 10 Clear CLR 83 66     57%   85 30.22 30.25      
Sep 21 08:53 ENE 10 10 Clear CLR 79 67     67%   80 30.22 30.25      
Sep 21 07:53 NE 8 10 Clear CLR 74 67     79%   75 30.21 30.24      
Sep 21 06:53 ENE 7 10 Clear CLR 71 66     84%   72 30.19 30.22      
Sep 21 05:53 NE 8 10 Clear CLR 71 66     84%   72 30.18 30.21      
Sep 21 04:53 NE 8 10 Clear CLR 71 65     81%   72 30.16 30.19      
Sep 21 03:53 ENE 8 10 Clear CLR 72 65     79%   73 30.15 30.18      
Sep 21 02:53 ENE 6 10 Clear CLR 72 64     76%   72 30.15 30.18      
Sep 21 01:53 ENE 7 10 Clear CLR 73 63     71%   73 30.15 30.18      
Sep 21 00:53 ENE 7 10 Clear CLR 75 63     66%   75 30.16 30.19      
Sep 20 23:53 ENE 8 10 Clear CLR 75 61     62%   75 30.15 30.18      
Sep 20 22:53 NE 7 10 Clear CLR 72 61     68%   72 30.15 30.18      
Sep 20 21:53 NE 3 10 Clear CLR 71 63     76%   71 30.14 30.17      
Sep 20 20:53 NNE 3 10 Clear CLR 71 64     79%   72 30.13 30.16      
Sep 20 19:53 NNE 3 10 Clear CLR 75 64     69%   75 30.12 30.15      
Sep 20 18:53 Calm 10 Clear   81 64     56%   83 30.11 30.14      
Sep 20 17:53 NE 3 10 Partly Cloudy SCT060 85 63     48%   86 30.11 30.14      
Sep 20 16:53 E 8 10 Clear   89 61     39%   89 30.1 30.13      
Sep 20 15:53 ENE 11 10 Mostly Cloudy SCT060 BKN080 89 62     41%   90 30.1 30.13      
Sep 20 14:53 E 10 10 Partly Cloudy SCT055 88 63     43%   89 30.11 30.14      
Sep 20 13:53 E 11 10 Mostly Clear FEW055 89 62     41%   90 30.13 30.16      
Sep 20 12:53 E 13 10 Partly Cloudy SCT043 SCT055 86 63     46%   87 30.15 30.18      
Sep 20 11:53 ENE 11 10 Partly Cloudy SCT043 86 63     46%   87 30.16 30.19      
Sep 20 10:53 ENE 9 10 Clear CLR 84 63     49%   85 30.16 30.19      
Sep 20 09:53 ENE 11 10 Clear CLR 81 63     54%   82 30.16 30.19      
Sep 20 08:53 ENE 10 10 Clear CLR 77 63     62%   77 30.15 30.18      
Sep 20 07:53 NE 8 10 Clear CLR 73 62     68%   73 30.15 30.18      
Sep 20 06:53 NE 6 10 Partly Cloudy SCT022 70 60     71%     30.14 30.17      
Sep 20 05:53 NE 6 10 Clear CLR 70 60     71%     30.13 30.16      
Sep 20 04:53 NE 7 10 Clear CLR 70 61     73%     30.11 30.14      
Sep 20 03:53 NE 7 10 Clear CLR 71 61     70%   71 30.1 30.13      
Sep 20 02:53 NE 8 10 Clear CLR 71 60     68%   71 30.1 30.13      
May 15 13:40 NNE 13 10 Mostly Cloudy BKN030 BKN060 81 67     62%   83 29.89   0    
May 15 04:29 N 6 10 Cloudy SCT012 OVC090 71 67     87%   72 29.89        
May 12 17:53 SW 10 10 Clear CLR 86 58     39%   85 30.02 30.06 0    
May 12 02:53 Calm 10 Clear   61 57     87%     30.06 30.09      
May 12 00:53 Calm 9 Clear CLR 63 58     84%     30.09 30.11     0
May 11 21:53 Calm 10 Clear CLR 70 58     66%     30.09 30.12   0  
May 11 15:53 SSW 11 10 Clear CLR 91 49     24%   88 30.04 30.07      
May 11 11:53 6 10 Clear CLR 90 50     26%   87 30.12 30.15      
Jun 11 10:53 ENE 5 10 Mostly Cloudy FEW005 BKN095 78 74     87%   80 30.12 30.15 0    
Jun 11 07:53 ENE 5 10 Cloudy OVC003 74 72     94%   75 30.1 30.13      
Jun 11 02:30 Calm 10 Mostly Clear FEW002 72 70     93%   73 30.04        
Jun 10 11:53 Calm 10 Mostly Clear FEW037 86 69     57%   90 30.03 30.06      
Jun 10 01:53 Calm 10 Clear CLR 69 66     90%     29.96 29.99      
Jun 09 21:53 Calm 10 Cloudy OVC085 75 71     88%   76 29.97 30      
Jun 09 06:53 Calm 10 Mostly Clear FEW050 71 67     87%   72 29.92 29.95      
Jun 08 08:09 NNW 8 10 Mostly Cloudy BKN010 70 65     84%     29.85        
Jun 08 06:53 NW 5 10 Clear CLR 67 65     93%     29.83 29.86      
Jun 07 11:53 N 3 10 Mostly Cloudy SCT012 BKN020 81 73     77%   86 29.69 29.72      
Jun 07 08:53 N 3 9 Light Rain FEW003 OVC080 74 72     94%   75 29.7 29.72 0    
Jun 06 07:55 NNE 5 10 Mostly Cloudy BKN085 72 70     93%   73 29.74        
Jun 06 05:41 NNE 7 10 Light Rain BKN023 BKN030 OVC036 73 71     94%   74 29.75   0    
Jun 06 03:28 SE 8 3 Thunderstorms and Heavy Rain and Fog/Mist SCT008 BKN032 OVC055 74 73     97%   76 29.76   0    
Jun 06 00:07 Calm 10 Cloudy FEW009 BKN017 OVC050 75 73     94%   77 29.79